Погода Кемерово

Погода Кемерово : погода сейчас, прогноз погоды и архив. Всё, что Вы хотите узнать о погоде Кемерово!

Поиск расширенной информации на нашем сайте:

Другие новости

Новости СМИ2

Главная страница сайта

Новости сайта

03.07.2017

Напоминаем, что на нашем специализированном сайте Метеоцентр.Азия вы можете получить высокодетализированные автоматические прогнозы погоды по пунктам России, СНГ и мира в авиационном формате (включающие направление и скорость ветра, видимость, явления погоды, количество и форму облачности, нижнюю и верхнюю границу облачности).


Погода Кемерово - сегодня

Время (UTC), дата Ветер
(°,м/с) 
Видим.   Явления Облачность Т
(°С)
Тd
(°С)
f(%) Тe
(°С)
Pmin
(гПа)
dP
(гПа)
Po
(мм)
O2
(г/м3)
Тmin Tmax R s Состояние
почвы
09 20.07.17 150 (ЮВ) 20000 м  в посл. час гроза{ливн. осадки}  9/5 600 м кучево-дожд., средняя, верхняя 
[Cb cap|Ac trans|Ci fib]
+20.1 +16.3 79 +31  1008.5  0.7  744  275           
12 20.07.17 350 (С) 10 км  {гроза, ливн. осадки}  9/6 600 м кучево-дожд., средняя, верхняя 
[Cb cap|Ac trans|Ci]
+20.6 +16.4 77 +32  1008.7  0.2  744  275    +22.1     
15 20.07.17 180 (Ю) 20000 м  {ливн. осадки}  10/3 600 м средняя, верхняя 
[Sc|Ac As|Ci fib]
+17.4 +15.4 88 +29  1010  1.1  745  279           
18 20.07.17 170 (Ю) 20000 м  {ливн. осадки}  8/3 600 м верхняя 
[Sc|Ci fib]
+14.4 +13.9 97 +23  1010.6  0.4  745  282           
21 20.07.17 тихо ()   4000 м  дымка  8/4 600 м верхняя 
[Sc|Cc]
+13.7 +13.2 97 +20  1011.2  0.5  745  283           
00 21.07.17 170 (Ю) 0200 м  туман  10/10 600 м 
[Sc]
+14.7 +14.2 97 +23  1011.6  0.5  746  282  +13.1    0.0    влажная 
03 21.07.17 150 (ЮВ) 20000 м  {туман}  10/6 600 м верхняя 
[Sc|Ci fib]
+18.1 +15.2 83 +29  1012.3  0.8  746  279           
06 21.07.17 140 (ЮВ) 20000 м  {туман}  8/6 600 м средняя 
[Cu med, cong|Ac trans]
+21.7 +14.9 65 +30  1011.5  -0.6  746  275           
09 21.07.17 270 (З) 4000 м  гроза, ливневой дождь  10/10 300 м кучево-дожд. 
[Cb cap]
+16.8 +15.9 94 +28  1011.6  -0.2  746  280           
12 21.07.17 200 (Ю) 20000 м  {гроза, ливн. осадки}  8/4 600 м средняя, верхняя 
[Cu med, cong|Ac trans|Ci sp]
+19.9 +16.6 81 +33  1011.3  -0.1  746  276    +22.5     
15 21.07.17 170 (Ю) 10 км  слаб. ливневой дождь  10/8 600 м кучево-дожд., верхняя 
[Cb cap|Ci fib]
+18.4 +17 92 +32  1012.1  0.7  746  278           
18 21.07.17 240 (ЮЗ) 20000 м  {ливн. осадки}  6/0 верхняя 
[Ci fib]
+15.6 +14.9 96 +26  1011.7  -0.5  746  281           
21 21.07.17 тихо ()   4000 м  дымка  10/3 600 м средняя, верхняя 
[Sc|Ac trans|Ci fib]
+13.4 +12.9 97 +19  1012.2  0.3  746  284           
00 22.07.17 160 (Ю) 20000 м    8/0 верхняя 
[Cc]
+14.1 +13.6 97 +21  1012.2  0.1  746  283  +12.2      влажная 
03 22.07.17 120 (ЮВ) 20000 м    3/3 600 м 
[Cu hum]
+19.6 +15.7 78 +31  1012.2  0.3  746  277           
06 22.07.17 260 (З) 20000 м    6/6 600 м кучево-дожд. 
[Cb cap]
+22.4 +14.9 63 +31  1011.2  -0.9  746  275           
09 22.07.17 010 (С) 20000 м  {ливн. осадки}  6/6 600 м кучево-дожд. 
[Cb cap]
+23.7 +14.5 56 +32  1010.8  -0.3  745  273           
12 22.07.17 110 (В) 20000 м  в посл. час ливневой дождь  8/8 600 м кучево-дожд. 
[Cb cap]
+23 +14.6 59 +31  1010.7  -0.1  745  274    +25.1  0.3     
15 22.07.17 тихо ()   20000 м    8/8 600 м 
[Sc]
+17.6 +16 90 +28  1011.3  0.3  746  279           
18 22.07.17 тихо ()   20000 м    3/1 600 м верхняя 
[Sc|Ci fib]
+14.2 +13.5 96 +21  1011.2  -0.3  745  283           
21 22.07.17 тихо ()   20000 м    5/4 600 м верхняя 
[Sc|Ci fib]
+13.5 +13 97 +19  1010.8  -0.5  745  283           
00 23.07.17 тихо ()   4000 м  дымка  8/3 600 м верхняя 
[Sc|Ci fib]
+14.1 +13.6 97 +21  1010.7  -0.1  745  283  +12.5        влажная 
03 23.07.17 150 (ЮВ) 20000 м    8/1 600 м средняя, верхняя 
[Sc|Ac trans|Ci fib]
+21 +15.7 72 +31  1009.9  -0.3  745  275           
06 23.07.17 250 (З) 20000 м    8/4 600 м верхняя 
[Cu med, cong|Ci fib]
+24.8 +13.8 50 +32  1009  -0.7  744  272           
09 23.07.17 240 (ЮЗ) 10 км  гроза, ливневой дождь  10/8 600 м кучево-дожд., верхняя 
[Cb cap|Ci fib]
+20.7 +17 79 +33  1009.4  0.2  744  275           
Время (UTC), дата Ветер
(°,м/с) 
Видим.   Явления Облачность Т
(°С)
Тd
(°С)
f(%) Тe
(°С)
Pmin
(гПа)
dP
(гПа)
Po
(мм)
O2
(г/м3)
Тmin Tmax R s Состояние
почвы

Для получения пояснительной информации подведите курсор к названию столбца.

ПОГОДА Кемерово - архив

Всё, что Вы хотите узнать о погоде Кемерово - удобно и подробно!

Выберите нужную дату (начиная с 1 января 2015* года) и нажмите кнопку "Найти".
Будут отображены архивные сводки погоды по пункту Кемерово, начиная с указанной даты.


Отображать данные в формате CSV (для использования в таблицах Excel)


Внимание! Наш архив погоды предназначен исключительно для личного некоммерческого использования в познавательных целях. Если Вам необходимы официальные справки о состоянии погоды (для производственных, юридических, коммерческих и т.п. целей), обращайтесь в органы Росгидромета.

*Примечание: данная дата относится к архиву по метеостанциям СССР (Россия, СНГ, Балтия).
Архив по метеостанциям Зарубежной Европы и Азии (кроме Китая) хранится 10 дней, по другим регионам земного шара (Китай, Африка, Америка, Австралия, Океания) - 1 день.

Кемерово - район местоположения метеостанции


Название, широта, долгота, высота метеостанции:
Кемерово (город) 55.2°ш. 86.1°д. 260 м над ур. моря [Российская Федерация]

Дополнительная информация

В oтличие oт бoльшинства пoгoдных сайтoв мы публикуем пoдрoбную метеoинфoрмацию в детальнoм прoфессиoнальнoм фoрмате.

Характеристики температуры и влажнoсти вoздуха измеряются на высoте 2 м в тени вдали oт зданий и деревьев.
Скoрoсть ветра измеряется на высoте 10 м (на урoвне рoста челoвека скoрoсть ветра ниже в 1.5-2 раза). Если метеoстанция нахoдится в гoрoде или в лесу, тo скoрoсть ветра занижена на 2-4 м/с пo сравнению с oткрытым местoм. Скoрoсть ветра над акватoриями крупных рек и oзёр, а также на вершинах хoлмoв на 2-5 м/с выше, чем в oбычных услoвиях.
Атмoсфернoе давление в разных тoчках местнoсти мoжет значительнo oтличаться oт давления на метеoстанции, в зависимoсти oт услoвий рельефа (при пoдъёме на 10 м давление пoнижается примернo на 1 мм рт.ст.).